User: anonymous   Login
Location: Tel Aviv
(32.0670°N, 34.7670°E)
Time: 05:36:57
(UTC+03:00)
Language:

Explorer 11/Cluster Stage 4 - Orbit

View from above orbital plane
View from above orbital plane
View from above satellite
View from above satellite

Ground track
Ground track

The orbit data is extracted from the following two-line orbital elements,

1 00107U 61013A   22228.79759785  .00002824  00000-0  36013-3 0  9994
2 00107  28.7881  34.9612 0541369 133.0795 231.6402 14.10261417 77824
Epoch (UTC): 16 August 2022 19:08:32
Eccentricity: 0.0541369
inclination: 28.7881°
perigee height: 467 km
apogee height: 1250 km
right ascension of ascending node: 34.9612°
argument of perigee: 133.0795°
revolutions per day: 14.10261417
mean anomaly at epoch: 231.6402°
orbit number at epoch: 7782

The dashed part of the orbit path shows where the satellite is in the earth's shadow,  

DLR